User: anonymous   Login
Location: Newsoms
(36.6240°N, 77.1250°W)
Time: 09:57:56
(UTC-04:00)
Language:

BREEZE-M DEB (TANK) - Orbit

View from above orbital plane
View from above orbital plane
View from above satellite
View from above satellite

Ground track
Ground track

The orbit data is extracted from the following two-line orbital elements,

1 29649U 06056B   15240.42915117  .00002710  00000-0  69864-3 0  9995
2 29649 049.5011 354.4368 5382468 111.1728 332.7742 04.97214924154912
Epoch (UTC): 28 August 2015 10:17:58
Eccentricity: 0.5382468
inclination: 49.5011°
perigee height: 317 km
apogee height: 15926 km
right ascension of ascending node: 354.4368°
argument of perigee: 111.1728°
revolutions per day: 4.97214924
mean anomaly at epoch: 332.7742°
orbit number at epoch: 15491

The dashed part of the orbit path shows where the satellite is in the earth's shadow,  

DLR